Date String (YYYY-MM-DD hh:mm:ss) UTC,Instrument flags,Ambient pressure (hPa),Sample flow (lpm),Bypass flow (lpm),Sample temperature (°C),Ambient temperature (°C),ASC tube jacket temperature (°C),LED temperature (°C),Box temperature (°C),Sample RH (%),Span deviation,Mass concentration (μg/m³),Mass concentration (μg/m³),Mass concentration (μg/m³)
DateTimeUTC,F1_M11,P_M11,Q1_M11,Q2_M11,T1_M11,T2_M11,T3_M11,T4_M11,T5_M11,U1_M11,ZSPAN_M11,X0_M11,X2_M11,X1_M11
2021-11-09 02:00:00,,0830.8,5.02,0.00,27.5,26.7,00.0,36.6,29.2,15.3,0003.1,0021.94,0010.49,0009.23
2021-11-09 02:01:00,,0830.8,5.01,0.00,27.5,26.7,00.0,36.6,29.2,15.4,0002.7,0021.82,0010.57,0009.31
2021-11-09 02:02:00,,0830.7,4.99,0.00,27.5,26.7,00.0,36.6,29.3,15.4,0002.4,0021.65,0010.65,0009.38
2021-11-09 02:03:00,,0830.8,5.02,0.00,27.5,26.7,00.0,36.6,29.3,15.4,0002.4,0021.11,0010.65,0009.45
2021-11-09 02:04:00,,0830.7,4.99,0.00,27.5,26.7,00.0,36.6,29.3,15.4,0002.4,0020.10,0010.71,0009.50
2021-11-09 02:05:00,,0830.8,5.03,0.00,27.5,26.7,00.0,36.6,29.3,15.4,0002.1,0019.97,0010.71,0009.52
2021-11-09 02:06:00,,0830.7,5.00,0.00,27.5,26.7,00.0,36.6,29.3,15.4,0001.7,0020.71,0010.79,0009.57
2021-11-09 02:07:00,,0830.7,5.00,0.00,27.5,26.7,00.0,36.6,29.3,15.4,0001.5,0020.78,0010.83,0009.62
2021-11-09 02:08:00,,0830.7,5.00,0.00,27.5,26.7,00.0,36.6,29.3,15.4,0000.9,0021.75,0010.97,0009.68
2021-11-09 02:09:00,,0830.6,5.01,0.00,27.5,26.7,00.0,36.6,29.3,15.5,0000.3,0022.14,0011.02,0009.74
2021-11-09 02:10:00,,0830.6,5.01,0.00,27.5,26.7,00.0,36.6,29.3,15.5,0000.2,0022.03,0011.03,0009.78
2021-11-09 02:11:00,,0830.6,4.99,0.00,27.5,26.7,00.0,36.6,29.3,15.5,0000.3,0021.85,0011.06,0009.82
2021-11-09 02:12:00,,0830.6,5.00,0.00,27.5,26.7,00.0,36.6,29.3,15.5,0000.2,0021.33,0011.08,0009.83
2021-11-09 02:13:00,,0830.6,5.00,0.00,27.5,26.7,00.0,36.6,29.2,15.5,0000.2,0020.78,0011.08,0009.80
2021-11-09 02:14:00,,0830.6,4.99,0.00,27.5,26.6,00.0,36.6,29.2,15.5,0000.1,0020.59,0011.13,0009.76
2021-11-09 02:15:00,,0830.5,4.99,0.00,27.5,26.6,00.0,36.6,29.2,15.5,0000.1,0021.03,0011.08,0009.71
2021-11-09 02:16:00,,0830.5,5.01,0.00,27.5,26.6,00.0,36.5,29.2,15.5,0000.1,0021.21,0011.01,0009.67
2021-11-09 02:17:00,,0830.5,5.00,0.00,27.4,26.6,00.0,36.5,29.2,15.5,0000.5,0021.22,0010.94,0009.62
2021-11-09 02:18:00,,0830.4,5.02,0.00,27.4,26.5,00.0,36.5,29.2,15.5,0000.4,0020.90,0010.90,0009.56
2021-11-09 02:19:00,,0830.5,5.00,0.00,27.4,26.5,00.0,36.5,29.1,15.5,0000.8,0019.18,0010.71,0009.47
2021-11-09 02:20:00,,0830.5,4.99,0.00,27.4,26.5,00.0,36.5,29.1,15.5,0000.9,0018.78,0010.61,0009.38
2021-11-09 02:21:00,,0830.5,5.00,0.00,27.4,26.5,00.0,36.5,29.1,15.6,0000.6,0018.85,0010.58,0009.30
2021-11-09 02:22:00,,0830.5,5.01,0.00,27.4,26.5,00.0,36.5,29.1,15.6,0000.8,0018.39,0010.54,0009.23
2021-11-09 02:23:00,,0830.5,4.99,0.00,27.3,26.4,00.0,36.5,29.1,15.6,0001.2,0018.44,0010.51,0009.20
2021-11-09 02:24:00,,0830.4,5.01,0.00,27.3,26.4,00.0,36.5,29.1,15.6,0001.3,0018.35,0010.46,0009.17
2021-11-09 02:25:00,,0830.4,4.99,0.00,27.3,26.4,00.0,36.4,29.0,15.6,0001.5,0018.40,0010.35,0009.16
2021-11-09 02:26:00,,0830.5,5.00,0.00,27.3,26.3,00.0,36.4,29.0,15.6,0001.6,0017.82,0010.31,0009.17
2021-11-09 02:27:00,,0830.5,5.01,0.00,27.3,26.3,00.0,36.4,29.0,15.6,0002.1,0017.17,0010.29,0009.16
2021-11-09 02:28:00,,0830.4,5.00,0.00,27.2,26.3,00.0,36.4,29.0,15.6,0002.1,0016.55,0010.29,0009.15
2021-11-09 02:29:00,,0830.5,5.00,0.00,27.2,26.3,00.0,36.4,29.0,15.7,0002.2,0016.50,0010.28,0009.15
2021-11-09 02:30:00,,0830.6,5.00,0.00,27.2,26.3,00.0,36.4,28.9,15.7,0002.2,0016.68,0010.28,0009.15
2021-11-09 02:31:00,,0830.6,4.99,0.00,27.2,26.2,00.0,36.3,28.9,15.7,0002.1,0016.64,0010.28,0009.16
2021-11-09 02:32:00,,0830.5,5.01,0.00,27.1,26.2,00.0,36.3,28.8,15.7,0001.9,0016.64,0010.20,0009.13
2021-11-09 02:33:00,,0830.5,5.01,0.00,27.1,26.2,00.0,36.3,28.8,15.7,0001.6,0016.48,0010.11,0009.10
2021-11-09 02:34:00,,0830.5,5.00,0.00,27.1,26.2,00.0,36.3,28.8,15.7,0002.0,0016.29,0010.05,0009.06
2021-11-09 02:35:00,,0830.5,5.00,0.00,27.1,26.2,00.0,36.3,28.8,15.7,0002.1,0016.33,0009.96,0009.01
2021-11-09 02:36:00,,0830.5,5.00,0.00,27.1,26.2,00.0,36.3,28.8,15.7,0001.9,0016.70,0009.92,0008.97
2021-11-09 02:37:00,,0830.5,5.01,0.00,27.1,26.2,00.0,36.2,28.8,15.7,0002.1,0016.98,0009.89,0008.93
2021-11-09 02:38:00,,0830.5,5.00,0.00,27.1,26.2,00.0,36.2,28.8,15.7,0002.0,0017.15,0009.82,0008.90
2021-11-09 02:39:00,,0830.5,4.99,0.00,27.1,26.2,00.0,36.2,28.8,15.7,0002.3,0017.36,0009.77,0008.88
2021-11-09 02:40:00,,0830.5,5.00,0.00,27.1,26.2,00.0,36.2,28.8,15.7,0002.1,0018.03,0009.73,0008.88
2021-11-09 02:41:00,,0830.5,5.01,0.00,27.0,26.2,00.0,36.2,28.8,15.8,0001.9,0017.73,0009.72,0008.87
2021-11-09 02:42:00,,0830.5,4.99,0.00,27.0,26.2,00.0,36.2,28.8,15.8,0001.6,0017.61,0009.69,0008.86
2021-11-09 02:43:00,,0830.5,5.00,0.00,27.0,26.2,00.0,36.2,28.8,15.7,0001.6,0017.47,0009.65,0008.87
2021-11-09 02:44:00,,0830.6,5.00,0.00,27.0,26.2,00.0,36.2,28.8,15.7,0002.0,0018.54,0009.67,0008.87
2021-11-09 02:45:00,,0830.6,4.99,0.00,27.0,26.2,00.0,36.2,28.8,15.7,0001.7,0018.95,0009.73,0008.91
2021-11-09 02:46:00,,0830.6,5.00,0.00,27.0,26.2,00.0,36.1,28.8,15.8,0001.3,0018.91,0009.80,0008.94
2021-11-09 02:47:00,,0830.6,5.01,0.00,27.0,26.2,00.0,36.1,28.8,15.8,0001.2,0018.65,0009.91,0008.99
2021-11-09 02:48:00,,0830.5,4.98,0.00,27.0,26.2,00.0,36.1,28.8,15.8,0001.0,0018.12,0009.99,0009.06
2021-11-09 02:49:00,,0830.5,5.01,0.00,27.1,26.2,00.0,36.1,28.8,15.8,0000.7,0017.78,0010.04,0009.11
2021-11-09 02:50:00,,0830.4,5.01,0.00,27.1,26.2,00.0,36.1,28.8,15.8,0000.1,0017.59,0010.11,0009.15
2021-11-09 02:51:00,,0830.4,5.00,0.00,27.0,26.2,00.0,36.1,28.8,15.8,0000.1,0016.82,0010.15,0009.17
2021-11-09 02:52:00,,0830.4,5.00,0.00,27.0,26.2,00.0,36.1,28.8,15.8,0000.3,0016.64,0010.16,0009.19
2021-11-09 02:53:00,,0830.4,5.00,0.00,27.0,26.2,00.0,36.1,28.8,15.8,0000.3,0017.06,0010.18,0009.21
2021-11-09 02:54:00,,0830.4,5.01,0.00,27.0,26.2,00.0,36.1,28.7,15.8,0000.8,0017.68,0010.30,0009.25
2021-11-09 02:55:00,,0830.5,5.00,0.00,27.0,26.2,00.0,36.1,28.7,15.8,0000.7,0017.17,0010.33,0009.28
2021-11-09 02:56:00,,0830.4,5.01,0.00,27.0,26.1,00.0,36.1,28.7,15.8,0000.8,0017.16,0010.32,0009.28
2021-11-09 02:57:00,,0830.4,5.00,0.00,27.0,26.1,00.0,36.1,28.7,15.9,0000.7,0017.73,0010.25,0009.27
2021-11-09 02:58:00,,0830.4,5.00,0.00,27.0,26.1,00.0,36.1,28.7,15.9,0000.7,0017.26,0010.18,0009.26
2021-11-09 02:59:00,,0830.4,5.00,0.00,26.9,26.1,00.0,36.1,28.7,15.9,0000.6,0017.54,0010.11,0009.22
